星链-36936(STARLINK-36936)

导读

STARLINK-36936(NORAD编号68012)是SpaceX星链(Starlink)互联网星座中的一颗低轨卫星,属于第二代星链组网卫星,运行于近地轨道,为全球提供高速低延迟宽带互联网服务。 为提升太空安全、降低碰撞风险,SpaceX宣布2026年将包括该星在内的约4400颗星链卫星,从原550公里轨道高度降至480公里,此举可让故障卫星更快再入大气层焚毁,减少空间碎片,缓解近地轨道拥挤带来的凯斯勒现象担忧,保障星座长期安全运营。

Basic Information
目录编号:
68012
目录名称:
STARLINK-36936
国际标识:
2026-039AC
轨道中心:
EARTH
卫星名称:
星链-36936
卫星全名:
星链-36936(STARLINK-36936)
卫星状态:
在轨 (已飞行189 天)
发射日期:
2026-02-27 UTC
国别 :
美国 (US)
星等 :
--
Orbit Information
数据来源 国际轨道数据
星历时间: 2026-09-04T07:24:08+0800
12小时前
查看轨道信息
半长轴: 6861.169km
偏心率: 0.0001227
轨道倾角: 43.005°
近地点辐角 253.905°
升交点赤经 121.736°
平近点角 106.167°
近地点: 482.19km
远地点: 483.874km
周期: 94.266分钟
每日圈数: 15.27586
Detailed Information
固有亮度:
5
最大亮度:
2.5
卫星平台:
Starlink V1.0
覆盖范围:
全球
运营商:
太空探索技术公司
运营商所在国:
美国
制造商(研发单位):
太空探索技术公司
制造商所在国:
美国
使用方式:
暂无
Satellite Introduction
Starlink 计划是 SpaceX 推出的全球卫星互联网项目,通过发射低轨道卫星,为全球尤其是偏远地区提供高速、低延迟的互联网服务。自 2019 年起,Starlink 已部署数千颗卫星,旨在缩小全球数字鸿沟,推动互联网普及。该项目还为军事、航空等行业提供通信支持,带来广泛经济效益。
2D Orbit Map
3D Orbit Map
Orbit Altitude Analysis Chart
Orbit Inclination Analysis Chart
Orbit Comprehensive Analysis Chart
View Comprehensive Chart
Conjunction Data List
Event ID Objects TCA Miss Dist (km) Collision Risk Probability Collision Risk Index (CRI) Action
CDM_260905-072605-641406-801221
2026-09-05T
07:26:59+0000
0.349 km
远距离
3.329219E-4 高风险 0.85
CDM_260903-122305-320706-801221
2026-09-03T
12:23:53+0000
2.018 km
极远距离
2.742006E-6 低风险 0.44
CDM_260905-055205-641406-801221
2026-09-05T
05:52:49+0000
2.202 km
极远距离
1.757497E-6 低风险 0.4
CDM_260903-131105-320706-801221
2026-09-03T
13:11:00+0000
2.846 km
极远距离
1.406257E-6 低风险 0.38
CDM_260905-090105-641406-801221
2026-09-05T
09:01:08+0000
2.924 km
极远距离
1.088326E-6 低风险 0.36